Torna al catalogo

STARLINK-34374

AttivoComunicazioniVLEO
NORAD 64308·PAYLOAD·🇺🇸 United States

Lanciato Jun 8, 2025 da Vandenberg Space Force Base

Loading…

Prossimi Passaggi (prossime 24 ore)

TLE

AggiornatoSource: CelesTrak SupGP

Epoca: Sep 15, 2026, 02:20 UTC

1 64308C 25123T   26258.09770833 -.00048652  00000+0 -16931-2 0  2580
2 64308  69.9998  75.1973 0002902 272.4954  45.0564 15.29592958    11

Traccia STARLINK-34374 in tempo reale con AllMySat

Download on the App Store